Skip Page Navigation
NASA JPL Caltech
NASA Logo - Jet Propulsion Laboratory + View the NASA Portal
+ Near-Earth Object (NEO) Program
Search JPL
JPL Home Earth Solar System Stars & Galaxies Technology
JPL Solar System Dynamics
BODIES ORBITS EPHEMERIDES TOOLS PHYSICAL DATA DISCOVERY FAQ SITE MAP
JPL Small-Body Database Browser
Search: [ help ]  
4581 Asclepius (1989 FC)
Classification: Apollo [NEO, PHA]          SPK-ID: 2004581
Ephemeris | Orbit Diagram | Orbital Elements | Physical Parameters | Discovery Circumstances | Close-Approach Data ]

[ hide orbit diagram ]
Orbit Diagram
Note: Make sure you have Java enabled on your browser to see the applet. This applet is provided as a 3D orbit visualization tool. The applet was implemented using 2-body methods, and hence should not be used for determining accurate long-term trajectories (over several years or decades) or planetary encounter circumstances. For accurate long-term ephemerides, please instead use our Horizons system.
Orbit Viewer

Additional Notes: the orbits shown in the applet are color coded. The planets are white lines, and the asteroid/comet is a blue line. The bright white line indicates the portion of the orbit that is above the ecliptic plane, and the darker portion is below the ecliptic plane. Likewise for the asteroid/comet orbit, the light blue indicates the portion above the ecliptic plane, and the dark blue the portion below the ecliptic plane.

Orbit Viewer applet originally written and kindly provided by Osamu Ajiki (AstroArts), and further modified by Ron Baalke (JPL).


Orbital Elements at Epoch 2456400.5 (2013-Apr-18.0) TDB
Reference: JPL 30 (heliocentric ecliptic J2000)
 Element Value Uncertainty (1-sigma)   Units 
e .3570757533511318 1.7005e-07  
a 1.022207936401914 2.0082e-08 AU
q .6572022674296946 1.864e-07 AU
i 4.916355198430799 8.8605e-06 deg
node 180.3365906205807 7.4859e-05 deg
peri 255.3023275442536 7.1194e-05 deg
M 168.3464801017828 1.2371e-05 deg
tp 2456223.973935479825
(2012-Oct-23.47393548)
8.0734e-06 JED
period 377.4916065298244
1.03
1.1124e-05
3.046e-08
d
yr
n .9536635882036693 2.8103e-08 deg/d
Q 1.387213605374133 2.7253e-08 AU
  Orbit Determination Parameters
   # obs. used (total)      103  
   # delay obs. used      2  
   # Doppler obs. used      2  
   data-arc span      8549 days (23.41 yr)  
   first obs. used      1989-03-31  
   last obs. used      2012-08-26  
   planetary ephem.      DE405  
   SB-pert. ephem.      SB405-CPV-2  
   condition code      0  
   fit RMS      .48284  
   data source      ORB  
   producer      Otto Matic  
   solution date      2013-Apr-29 15:37:36  

Additional Information
 Earth MOID = .00359005 AU 
 T_jup = 5.915 
[ show covariance matrix ]

Ephemeris | Orbit Diagram | Orbital Elements | Physical Parameters | Discovery Circumstances | Close-Approach Data ]

Physical Parameter Table
Parameter Symbol Value Units Sigma Reference Notes
absolute magnitude H 20.4 mag n/a PDS3 (MPC 28112)  

4581 Asclepius (1989 FC)          Discovered 1989-Mar-31 by Holt and Thomas at Palomar (675)
Reference: DISCOVERY.DBLast Updated: 2003-08-29

[ show close-approach data ]
Ephemeris | Orbit Diagram | Orbital Elements | Physical Parameters | Discovery Circumstances | Close-Approach Data ]
ABOUT SSD CREDITS/AWARDS PRIVACY/COPYRIGHT GLOSSARY LINKS
FirstGov 2013-May-18 16:57 UT
(server date/time)  
NASA Home Page
Site Manager:   Donald K. Yeomans
Webmaster  Alan B. Chamberlin